Location: Aleksandria
(48.6657°N, 33.1137°E)
Time: 13:25:11
(UTC+03:00)

Tiangong 2 - Visible Passes

Search period start: 17 July 2019 00:00
Search period end: 27 July 2019 00:00
Orbit: 378 x 386 km, 42.8° (Epoch: 17 July)

Date Brightness Start Highest point End Pass type
(mag) Time Alt. Az. Time Alt. Az. Time Alt. Az.
17 Jul 3.2 22:43:20 10° WSW 22:44:49 14° SSW 22:44:49 14° SSW visible
18 Jul 2.8 21:42:43 10° WSW 21:45:04 19° SSW 21:47:00 12° SSE visible
19 Jul 3.5 22:20:16 10° SW 22:20:55 10° SSW 22:21:20 10° SSW visible
20 Jul 3.2 21:18:56 10° WSW 21:20:50 15° SSW 21:22:45 10° SSE visible
